Hourly Data Report for June 22, 2003

SHERBROOKE A
QUEBEC

45°26'00.000" N
71°41'00.000" W
241.40 m
7028124
71610
YSC

Download Data

Hourly Data (June 2003)
Hourly Data Report for June 22, 2003
TIME
LST
Temp Definition
°C
Dew Point Definition
°C
Rel Hum Definition
%
Precip. Amount Definition
mm

Wind Dir Definition
10's deg

Wind Spd Definition
km/h
Visibility Definition
km
Stn Press Definition
kPa
Hmdx Definition


Wind Chill Definition


Weather Definition


00:00 12.3 11.5 95     0 15.0 98.12      
01:00 12.6 11.4 92   21 4 15.0 98.11      
02:00 10.2 9.4 95   5 4 15.0 98.12      
03:00 10.5 10.0 97   7 4 15.0 98.10      
04:00 10.6 10.0 96   7 4 15.0 98.12      
05:00 11.7 10.9 95   9 4 15.0 98.15      
06:00 13.2 11.8 91   12 4 15.0 98.14      
07:00 14.6 12.8 89     0 24.1 98.12     Mostly Cloudy
08:00 16.4 13.5 83   15 7 24.1 98.13     Mostly Cloudy
09:00 19.0 14.4 75   28 4 24.1 98.13     Mostly Cloudy
10:00 20.8 14.7 68   26 6 24.1 98.10 25   Mostly Cloudy
11:00 21.9 15.1 65   29 6 24.1 98.06 26   Mostly Cloudy
12:00 23.6 14.9 58     0 24.1 98.01 28   Mostly Cloudy
13:00 23.6 15.8 62   27 6 24.1 98.01 28   Mostly Cloudy
14:00 24.0 16.9 65   28 9 24.1 97.95 29   Mostly Cloudy
15:00 24.0 17.2 66   27 7 24.1 97.93 29   Mostly Cloudy
16:00 24.2 18.0 68   26 9 24.1 97.91 30   Mostly Cloudy
17:00 23.3 17.9 72   29 6 15.0 97.87 29    
18:00 22.6 18.1 76     0 15.0 97.86 29    
19:00 21.3 17.6 79   25 4 15.0 97.87 27    
20:00 17.2 16.0 93   27 4 15.0 97.89      
21:00 16.2 15.3 94     0 11.3 97.91      
22:00 14.6 14.0 96     0 9.7 97.91      
23:00 13.2 12.9 98     0 0.2 97.92      

Notes on Data Quality.

Legend

  • E = Estimated
  • M = Missing
  • NA = Not Available*
  • [empty] = Indicates an unobserved value
Date modified: